{"data":{"norad_id":52302,"intl_designator":"2022-041AT","name":"STARLINK-3564","alt_names":[],"object_type":"PAYLOAD","status":"ACTIVE","operator":null,"country":"US","launch_date":"2022-04-21","launch_site_code":"AFETR","launch_vehicle":null,"mission":null,"orbit_class":"UNKNOWN","rcs_meters":null,"size_class":null,"mass_kg":null,"dimensions":null,"purposes":["comms"],"wikipedia_slug":null,"has_3d_model":false,"image_url":null,"decayed_at":null,"tle_current":{"epoch":"2026-09-20T01:25:00.425280Z","epoch_age_seconds":97658,"freshness":"FRESH","line1":"1 52302U 22041AT  26263.05903270  .00000153  00000+0  16680-4 0  9999","line2":"2 52302  53.1587 281.8571 0001187  71.2238 288.8892 15.31702993244189","mean_motion":15.31702993,"eccentricity":0.0001187,"inclination_deg":53.1587,"raan_deg":281.8571,"arg_perigee_deg":71.2238,"mean_anomaly_deg":288.8892,"bstar":1.668e-5,"rev_number":24418,"period_min":94.013004256106,"perigee_km":469.91811262262,"apogee_km":471.54403390321,"semimajor_km":6848.8680732629,"source":"CELESTRAK","updated_at":"2026-09-20T09:00:40.018511Z"}}}